Alamosa, CO

11:19 AM MDT on June 28, 2017 (GMT -0600)
San Luis Valley Regional / Bergman Field

Weather History for KALS - April, 2013

Change the Weather History Date:

Tuesday, April 2, 2013

  Actual Average Record
Temperature  
Mean Temperature 40 °F 38 °F  
Max Temperature 59 °F 55 °F 75 °F (2011)
Min Temperature 21 °F 21 °F 1 °F (1936)
Degree Days  
Heating Degree Days 25 27  
Month to date heating degree days 45 54  
Since 1 July heating degree days 7791 7360  
Cooling Degree Days 0 0  
Month to date cooling degree days 0 0  
Year to date cooling degree days 0 0  
Moisture  
Dew Point 16 °F    
Average Humidity 53    
Maximum Humidity 96    
Minimum Humidity 9    
Precipitation  
Precipitation T in 0.02 in 0.45 in (1957)
Month to date precipitation T 0.04  
Year to date precipitation 0.56 1.09  
Snow  
Snow T in 0.10 in 6.60 in (1957)
Month to date snowfall T 0.3  
Since 1 July snowfall 18.9 23.4  
Snow Depth 0.00 in    
Sea Level Pressure  
Sea Level Pressure 29.86 in    
Wind  
Wind Speed 10 mph (SSE)    
Max Wind Speed 30 mph    
Max Gust Speed 40 mph    
Visibility 10 miles    
Events Snow    
T = Trace of Precipitation, MM = Missing Value Source: NWS Daily Summary

Daily Weather History Graph

Daily Weather History Graph

Search for Another Location

Airport or City:

Trip Planner

Search our weather history database for the weather conditions in past years. The results will help you decide how hot, cold, wet, or windy it might be!

Date:

Astronomy

Apr. 02, 2013 Rise Set
Actual Time 6:47 AM MDT 7:27 PM MDT
Civil Twilight 6:20 AM MDT 7:53 PM MDT
Nautical Twilight 5:49 AM MDT 8:24 PM MDT
Astronomical Twilight 5:17 AM MDT 8:56 PM MDT
Moon 1:29 AM MDT (4/2) 11:45 AM MDT (4/2)
Length of Visible Light 13h 33m
Length of Day
12h 40m
Waning Gibbous, 55% of the Moon is Illuminated
Apr 2
Waning Gibbous
Apr 2
Last Quarter
Apr 10
New
Apr 18
First Quarter
Apr 25
Full

Hourly Weather History & Observations

Time (MDT) Temp. Windchill Dew Point Humidity Pressure Visibility Wind Dir Wind Speed Gust Speed Precip Events Conditions
12:52 AM 37.9 °F - 10.9 °F 33% 29.80 in 10.0 mi Calm Calm - N/A   Clear
1:52 AM 37.9 °F 30.5 °F 12.9 °F 36% 29.79 in 10.0 mi South 11.5 mph - N/A   Clear
2:52 AM 36.0 °F 30.3 °F 12.0 °F 37% 29.79 in 10.0 mi West 6.9 mph - N/A   Clear
3:52 AM 32.0 °F 23.0 °F 10.9 °F 42% 29.80 in 10.0 mi SSW 11.5 mph - N/A   Clear
4:52 AM 30.9 °F - 10.9 °F 43% 29.81 in 10.0 mi Calm Calm - N/A   Clear
5:52 AM 24.1 °F 16.0 °F 15.1 °F 69% 29.87 in 10.0 mi ESE 6.9 mph - N/A   Clear
6:52 AM 24.1 °F 16.0 °F 17.1 °F 75% 29.88 in 10.0 mi ESE 6.9 mph - N/A   Clear
7:52 AM 30.0 °F 26.5 °F 19.0 °F 64% 29.89 in 10.0 mi ESE 3.5 mph - N/A   Clear
8:52 AM 37.9 °F 32.7 °F 14.0 °F 38% 29.88 in 10.0 mi SSE 6.9 mph - N/A   Clear
9:52 AM 46.0 °F 41.4 °F 15.1 °F 29% 29.85 in 10.0 mi South 9.2 mph - N/A   Clear
10:52 AM 50.0 °F - 10.0 °F 20% 29.82 in 10.0 mi WSW 9.2 mph - N/A   Clear
11:52 AM 53.1 °F - 5.0 °F 14% 29.78 in 10.0 mi Variable 3.5 mph - N/A   Clear
12:52 PM 57.0 °F - 1.9 °F 11% 29.75 in 10.0 mi SW 9.2 mph 20.7 mph N/A   Clear
1:52 PM 57.9 °F - -2.0 °F 9% 29.72 in 10.0 mi SSW 15.0 mph 24.2 mph N/A   Clear
2:52 PM 57.9 °F - 1.9 °F 10% 29.71 in 10.0 mi SSW 19.6 mph 26.5 mph N/A   Clear
3:52 PM 57.9 °F - 3.9 °F 11% 29.72 in 10.0 mi SW 15.0 mph 31.1 mph N/A   Partly Cloudy
4:52 PM 52.0 °F - 12.9 °F 21% 29.78 in 10.0 mi WSW 21.9 mph 29.9 mph N/A   Clear
5:52 PM 45.0 °F 37.9 °F 21.0 °F 39% 29.87 in 10.0 mi SE 16.1 mph 19.6 mph N/A   Partly Cloudy
6:52 PM 45.0 °F 40.6 °F 19.9 °F 37% 29.91 in 10.0 mi SE 8.1 mph - N/A   Mostly Cloudy
7:52 PM 41.0 °F 32.8 °F 25.0 °F 53% 29.94 in 10.0 mi NE 16.1 mph - N/A   Overcast
8:00 PM 39.2 °F 29.8 °F 26.6 °F 61% 29.99 in 10.0 mi NNE 18.4 mph 24.2 mph N/A   Overcast
8:52 PM 37.0 °F 29.3 °F 28.0 °F 70% 29.96 in 10.0 mi NNE 11.5 mph - N/A   Scattered Clouds
9:52 PM 35.1 °F 30.1 °F 32.0 °F 89% 29.96 in 6.0 mi NE 5.8 mph - 0.00 in Snow Light Snow
10:04 PM 35.6 °F 30.7 °F 33.8 °F 93% 30.05 in 9.0 mi NE 5.8 mph - 0.00 in   Overcast
10:52 PM 34.0 °F 27.2 °F 32.0 °F 92% 29.95 in 10.0 mi NE 8.1 mph - 0.00 in   Mostly Cloudy
11:52 PM 34.0 °F 29.8 °F 30.0 °F 85% 29.94 in 10.0 mi NNW 4.6 mph - N/A   Partly Cloudy